OK6FS-6 Weather Reports


Display with metric or nautical units.
time (UTC)temp
F
wind
direction
speed
MPH
gust
MPH
rain 1hr
in
rain 24hr
in
rain mn
in
humidity
%
barometer
mb
20260507024244 61 301 4.0 6.0 0.00 0.00 0.00 77 1011.8
20260507023032 61 264 4.0 6.0 0.00 0.00 0.00 76 1011.8
20260507021838 61 285 3.0 8.0 0.00 0.00 0.00 76 1011.5
20260507020635 61 280 5.0 8.0 0.00 0.00 0.00 76 1011.7
20260507015442 62 258 5.0 7.0 0.00 0.00 0.00 76 1011.5
20260507014229 62 258 5.0 6.0 0.00 0.00 0.00 76 1011.3
20260507013036 62 270 5.0 12.0 0.00 0.00 0.00 75 1011.3
20260507011823 62 249 5.0 12.0 0.00 0.00 0.00 74 1011.2
20260507010630 62 265 6.0 8.0 0.00 0.00 0.00 75 1011.0
20260507005437 62 271 6.0 9.0 0.00 0.00 0.00 73 1010.7
20260507004235 63 259 4.0 6.0 0.00 0.00 0.00 72 1010.5
20260507003032 63 253 3.0 4.0 0.00 0.00 0.00 73 1010.4
20260507001854 63 293 4.0 7.0 0.00 0.00 0.00 73 1010.3
20260507000645 63 272 4.0 6.0 0.00 0.00 0.00 74 1010.3
20260506235432 63 280 7.0 11.0 0.00 0.00 0.00 74 1010.3
20260506234249 63 278 5.0 8.0 0.00 0.00 0.00 72 1010.1
20260506233026 64 289 4.0 7.0 0.00 0.00 0.00 70 1009.8
20260506231844 64 274 4.0 6.0 0.00 0.00 0.00 67 1009.7
20260506230651 64 266 4.0 6.0 0.00 0.00 0.00 65 1009.4
20260506225438 65 268 3.0 6.0 0.00 0.00 0.00 64 1009.2
20260506224245 65 266 5.0 7.0 0.00 0.00 0.00 62 1009.1
20260506223052 65 260 4.0 5.0 0.00 0.00 0.00 60 1009.0
20260506221819 66 266 3.0 5.0 0.00 0.00 0.00 58 1008.7
20260506220627 66 287 1.0 2.0 0.00 0.00 0.00 59 1008.4
20260506215454 65 208 5.0 7.0 0.00 0.00 0.00 60 1008.2
20260506214341 65 248 4.0 10.0 0.00 0.00 0.00 61 1007.6
20260506213029 65 203 5.0 8.0 0.00 0.00 0.00 60 1007.3
20260506211847 66 190 5.0 7.0 0.00 0.00 0.00 59 1007.2
20260506210634 66 207 2.0 4.0 0.00 0.00 0.00 59 1007.2
20260506205441 66 156 4.0 7.0 0.00 0.00 0.00 58 1007.1
20260506204249 67 208 4.0 7.0 0.00 0.00 0.00 57 1007.1
20260506203037 67 212 3.0 5.0 0.00 0.00 0.00 57 1007.0
20260506201905 67 329 5.0 10.0 0.00 0.00 0.00 56 1006.8
20260506200702 67 214 4.0 7.0 0.00 0.00 0.00 56 1006.8
20260506195440 68 169 3.0 5.0 0.00 0.00 0.00 56 1006.8
20260506194228 68 185 3.0 6.0 0.00 0.00 0.00 56 1006.4
20260506193055 68 116 2.0 4.0 0.00 0.00 0.00 56 1006.4
20260506191853 68 155 3.0 5.0 0.00 0.00 0.00 56 1006.4
20260506190640 69 162 4.0 5.0 0.00 0.00 0.00 55 1006.4
20260506185427 69 188 3.0 6.0 0.00 0.00 0.00 55 1006.3
20260506184235 70 204 3.0 5.0 0.00 0.00 0.00 54 1006.3
20260506183042 70 295 3.0 6.0 0.00 0.00 0.00 53 1006.1
20260506181830 71 94 4.0 7.0 0.00 0.00 0.00 52 1005.7
20260506180627 71 67 4.0 6.0 0.00 0.00 0.00 51 1005.7
20260506175443 72 112 4.0 8.0 0.00 0.00 0.00 50 1005.6
20260506174251 72 198 5.0 9.0 0.00 0.00 0.00 49 1005.7
20260506173038 73 209 4.0 6.0 0.00 0.00 0.00 49 1005.6
20260506171855 74 141 4.0 9.0 0.00 0.00 0.00 48 1005.6
20260506170642 74 120 5.0 8.0 0.00 0.00 0.00 47 1005.7
20260506165427 75 73 4.0 7.0 0.00 0.00 0.00 46 1005.7
20260506164233 75 177 5.0 9.0 0.00 0.00 0.00 46 1005.8
20260506163030 75 208 5.0 8.0 0.00 0.00 0.00 46 1005.8
20260506161855 76 197 6.0 8.0 0.00 0.00 0.00 44 1006.0
20260506160646 76 178 7.0 10.0 0.00 0.00 0.00 43 1006.2
20260506155423 77 140 7.0 10.0 0.00 0.00 0.00 43 1006.3
20260506154251 77 47 5.0 7.0 0.00 0.00 0.00 44 1006.4
20260506153038 77 142 7.0 10.0 0.00 0.00 0.00 44 1006.7
20260506151825 77 79 5.0 6.0 0.00 0.00 0.00 43 1006.6
20260506150652 77 72 4.0 8.0 0.00 0.00 0.00 42 1006.7
20260506145439 77 120 6.0 9.0 0.00 0.00 0.00 42 1007.0
20260506144227 78 80 7.0 11.0 0.00 0.00 0.00 40 1007.0
20260506143034 78 230 6.0 9.0 0.00 0.00 0.00 40 1007.3
20260506141821 78 117 5.0 7.0 0.00 0.00 0.00 40 1007.3
20260506140629 79 38 6.0 7.0 0.00 0.00 0.00 40 1007.4
20260506135436 79 76 5.0 7.0 0.00 0.00 0.00 40 1007.6
20260506134303 79 152 6.0 9.0 0.00 0.00 0.00 41 1007.8
20260506133031 78 60 5.0 7.0 0.00 0.00 0.00 42 1008.0
20260506131858 78 71 5.0 9.0 0.00 0.00 0.00 42 1008.0
20260506130625 78 186 4.0 6.0 0.00 0.00 0.00 42 1008.3
20260506125433 78 86 5.0 9.0 0.00 0.00 0.00 42 1008.5
20260506124250 77 91 5.0 7.0 0.00 0.00 0.00 43 1008.6
20260506123027 77 136 5.0 8.0 0.00 0.00 0.00 44 1008.8
20260506121835 78 78 5.0 7.0 0.00 0.00 0.00 44 1008.9
20260506120642 78 101 7.0 13.0 0.00 0.00 0.00 42 1009.1
20260506115429 79 112 5.0 9.0 0.00 0.00 0.00 41 1009.2
20260506114237 78 246 4.0 6.0 0.00 0.00 0.00 41 1009.2
20260506113104 78 106 4.0 8.0 0.00 0.00 0.00 41 1009.1
20260506111842 79 175 4.0 6.0 0.00 0.00 0.00 39 1009.4
20260506110629 80 185 4.0 8.0 0.00 0.00 0.00 36 1009.5
20260506105427 81 114 5.0 7.0 0.00 0.00 0.00 35 1009.6
20260506104304 81 50 3.0 4.0 0.00 0.00 0.00 36 1009.6
20260506103051 80 168 2.0 4.0 0.00 0.00 0.00 36 1009.7
20260506101849 80 188 4.0 7.0 0.00 0.00 0.00 36 1010.0
20260506100626 79 204 3.0 6.0 0.00 0.00 0.00 36 1010.3
20260506095443 79 182 2.0 3.0 0.00 0.00 0.00 35 1010.2
20260506094231 80 201 4.0 6.0 0.00 0.00 0.00 35 1010.5
20260506093037 80 177 3.0 6.0 0.00 0.00 0.00 35 1010.4
20260506091834 79 65 2.0 3.0 0.00 0.00 0.00 35 1010.4
20260506090641 79 183 5.0 9.0 0.00 0.00 0.00 35 1010.5
20260506085428 79 220 3.0 4.0 0.00 0.00 0.00 36 1010.5
20260506084235 81 261 3.0 7.0 0.00 0.00 0.00 36 1010.7
20260506083051 79 188 3.0 6.0 0.00 0.00 0.00 38 1010.6
20260506081838 79 202 2.0 4.0 0.00 0.00 0.00 38 1010.9
20260506080625 79 222 3.0 5.0 0.00 0.00 0.00 40 1010.9
20260506073031 81 210 3.0 6.0 0.00 0.00 0.00 41 1011.1
20260506071857 80 266 3.0 6.0 0.00 0.00 0.00 42 1011.1
20260506070643 80 213 3.0 4.0 0.00 0.00 0.00 44 1011.1
20260506061833 70 185 3.0 4.0 0.00 0.00 0.00 60 1011.3
20260506060638 65 236 3.0 5.0 0.00 0.00 0.00 72 1011.4
20260506050624 61 0.0 0.0 0.00 0.00 0.00 80 1011.0
20260506044243 60 0.0 0.0 0.00 0.00 0.00 77 1010.8
20260506043040 60 0.0 0.0 0.00 0.00 0.00 75 1010.6
20260506041827 60 0.0 0.0 0.00 0.00 0.00 74 1010.4
20260506040624 61 0.0 0.0 0.00 0.00 0.00 73 1010.3
20260506035442 61 294 1.0 2.0 0.00 0.00 0.00 71 1010.3
20260506034228 61 315 0.0 0.0 0.00 0.00 0.00 70 1010.3
20260506033054 61 273 1.0 2.0 0.00 0.00 0.00 69 1010.2
20260506031901 60 294 1.0 1.0 0.00 0.00 0.00 69 1010.2
20260506030629 61 310 0.0 1.0 0.00 0.00 0.00 67 1010.2
20260506025456 61 0.0 0.0 0.00 0.00 0.00 67 1009.9